GW5122 Weather Reports


time (UTC)temp
F
wind
direction
speed
knots
gust
knots
rain 1hr
in
rain 24hr
in
rain mn
in
humidity
%
barometer
mb
20260507231535 56 293 3.5 8.7 0.00 0.02 0.02 46 1007.6
20260507231033 56 298 3.5 7.0 0.00 0.02 0.02 46 1007.8
20260507230529 56 311 5.2 7.0 0.00 0.02 0.02 45 1007.8
20260507230026 57 310 5.2 8.7 0.00 0.02 0.02 48 1007.5
20260507225521 57 295 3.5 6.1 0.00 0.02 0.02 48 1007.8
20260507225018 56 289 6.1 7.8 0.00 0.02 0.02 49 1007.7
20260507224513 56 256 3.5 7.0 0.00 0.02 0.02 47 1007.7
20260507224010 56 332 1.7 8.7 0.00 0.02 0.02 49 1007.5
20260507223506 56 164 0.9 5.2 0.00 0.02 0.02 48 1007.7
20260507223004 56 334 3.5 7.8 0.00 0.02 0.02 50 1007.5
20260507222501 57 291 3.5 7.8 0.00 0.02 0.02 46 1007.7
20260507221957 57 302 2.6 5.2 0.00 0.02 0.02 50 1007.5
20260507221453 55 235 0.0 3.5 0.00 0.02 0.02 54 1007.4
20260507220951 56 257 1.7 6.1 0.00 0.02 0.02 49 1007.2
20260507220448 57 292 1.7 2.6 0.00 0.02 0.02 51 1007.5
20260507215944 55 310 2.6 3.5 0.00 0.02 0.02 55 1007.3
20260507215441 55 293 2.6 7.0 0.00 0.02 0.02 52 1007.4
20260507214938 56 313 6.1 9.6 0.00 0.02 0.02 50 1007.2
20260507214436 56 292 7.0 7.8 0.00 0.02 0.02 49 1007.2
20260507213931 56 182 0.0 3.5 0.00 0.02 0.02 50 1007.1
20260507213428 56 313 5.2 7.0 0.00 0.02 0.02 49 1007.3
20260507212925 57 296 5.2 7.8 0.00 0.02 0.02 47 1007.2
20260507212420 58 123 5.2 7.8 0.00 0.02 0.02 47 1007.2
20260507211918 58 335 7.0 11.3 0.00 0.02 0.02 49 1007.1
20260507211409 58 299 0.9 2.6 0.00 0.02 0.02 51 1007.0
20260507210906 58 336 3.5 3.5 0.00 0.02 0.02 49 1006.9
20260507210403 57 245 1.7 8.7 0.00 0.02 0.02 47 1007.0
20260507205859 56 261 3.5 7.0 0.00 0.02 0.02 52 1007.0
20260507205357 58 166 3.5 7.8 0.00 0.02 0.02 49 1007.1
20260507204852 57 210 2.6 3.5 0.00 0.02 0.02 49 1006.9
20260507204349 56 308 2.6 7.8 0.00 0.02 0.02 51 1006.8
20260507203847 58 162 2.6 7.0 0.00 0.02 0.02 52 1006.9
20260507203344 57 307 3.5 8.7 0.00 0.02 0.02 46 1007.1
20260507202841 56 119 2.6 8.7 0.00 0.02 0.02 49 1007.0
20260507202337 56 228 5.2 8.7 0.00 0.02 0.02 49 1007.1
20260507201832 58 312 7.8 9.6 0.00 0.02 0.02 52 1007.1
20260507201328 58 313 2.6 6.1 0.00 0.02 0.02 50 1007.1
20260507200824 56 286 3.5 7.8 0.00 0.02 0.02 51 1007.3
20260507200321 57 336 2.6 5.2 0.00 0.02 0.02 52 1007.6
20260507195817 58 296 1.7 7.0 0.00 0.02 0.02 50 1007.2
20260507195314 57 318 5.2 7.8 0.00 0.02 0.02 52 1007.5
20260507194811 57 17 4.3 6.1 0.00 0.02 0.02 53 1007.6
20260507194307 56 294 7.8 9.6 0.00 0.02 0.02 51 1007.7
20260507193804 57 301 1.7 5.2 0.00 0.02 0.02 52 1007.4
20260507193301 56 313 5.2 7.0 0.00 0.02 0.02 56 1007.6
20260507192757 57 310 4.3 8.7 0.00 0.02 0.02 57 1007.5
20260507192254 56 327 7.8 9.6 0.00 0.02 0.02 52 1007.5
20260507191750 56 272 3.5 11.3 0.00 0.02 0.02 52 1007.6
20260507191247 57 263 3.5 11.3 0.00 0.02 0.02 53 1007.6
20260507190743 58 35 1.7 3.5 0.00 0.02 0.02 58 1007.6
20260507190242 56 310 4.3 7.8 0.00 0.02 0.02 54 1007.7
20260507185740 56 301 4.3 5.2 0.00 0.02 0.02 55 1007.7
20260507185237 56 307 3.5 9.6 0.00 0.02 0.02 53 1007.3
20260507184735 56 262 0.0 0.9 0.00 0.02 0.02 52 1007.6
20260507184232 56 286 2.6 9.6 0.00 0.02 0.02 50 1007.8
20260507183729 57 320 7.0 9.6 0.00 0.02 0.02 53 1007.6
20260507183226 56 308 4.3 5.2 0.00 0.02 0.02 53 1007.6
20260507182723 56 304 5.2 7.8 0.00 0.02 0.02 58 1008.0
20260507182218 58 127 2.6 6.1 0.00 0.02 0.02 56 1007.8
20260507181715 59 354 7.8 12.2 0.00 0.02 0.02 49 1007.6
20260507181212 58 308 5.2 7.8 0.00 0.02 0.02 54 1007.6
20260507180709 58 281 4.3 5.2 0.00 0.02 0.02 54 1007.6
20260507180205 57 314 4.3 5.2 0.00 0.02 0.02 54 1007.6
20260507175700 56 290 6.1 9.6 0.00 0.02 0.02 54 1007.7
20260507175158 57 283 4.3 12.2 0.00 0.02 0.02 57 1007.8
20260507174655 57 305 8.7 9.6 0.00 0.02 0.02 53 1008.1
20260507174153 57 294 7.0 8.7 0.00 0.02 0.02 48 1008.1
20260507173650 56 281 7.0 8.7 0.00 0.02 0.02 55 1008.3
20260507173147 57 222 1.7 7.8 0.00 0.02 0.02 52 1008.4
20260507172644 56 303 3.5 6.1 0.00 0.02 0.02 54 1007.9
20260507172141 56 301 1.7 7.0 0.00 0.02 0.02 57 1008.4
20260507171641 56 314 6.1 8.7 0.00 0.02 0.02 54 1008.4
20260507171138 56 297 5.2 7.8 0.00 0.02 0.02 58 1008.7
20260507170635 57 174 3.5 5.2 0.00 0.02 0.02 55 1008.3
20260507170133 56 152 2.6 7.0 0.00 0.02 0.02 59 1008.5
20260507165628 55 297 4.3 5.2 0.00 0.02 0.02 58 1008.5
20260507165124 54 310 3.5 5.2 0.00 0.02 0.02 60 1008.9
20260507164620 55 250 1.7 7.8 0.00 0.02 0.02 57 1008.5
20260507164117 55 197 1.7 3.5 0.00 0.02 0.02 51 1008.7
20260507163615 54 291 6.1 7.0 0.00 0.02 0.02 56 1008.9
20260507163113 55 55 1.7 5.2 0.00 0.02 0.02 59 1008.7
20260507162614 55 144 3.5 9.6 0.00 0.02 0.02 54 1008.9
20260507162110 56 295 4.3 6.1 0.00 0.02 0.02 54 1008.8
20260507161607 56 315 2.6 7.8 0.00 0.02 0.02 55 1008.9
20260507161103 55 343 3.5 7.8 0.00 0.02 0.02 56 1009.0
20260507160600 54 298 1.7 6.1 0.00 0.02 0.02 62 1009.1
20260507160056 54 161 1.7 7.0 0.00 0.02 0.02 62 1008.9
20260507155551 55 305 4.3 7.8 0.00 0.02 0.02 60 1008.9
20260507155049 55 313 2.6 6.1 0.00 0.02 0.02 64 1009.0
20260507154545 54 305 2.6 3.5 0.00 0.02 0.02 60 1009.0
20260507154043 55 340 1.7 5.2 0.00 0.02 0.02 58 1009.2
20260507153539 55 216 1.7 13.9 0.00 0.02 0.02 60 1008.9
20260507153035 54 134 5.2 8.7 0.00 0.02 0.02 56 1009.1
20260507152531 55 246 3.5 5.2 0.00 0.02 0.02 55 1009.1
20260507152028 53 293 2.6 6.1 0.00 0.02 0.02 56 1009.1
20260507151524 53 297 3.5 7.8 0.00 0.02 0.02 63 1009.2
20260507151021 53 321 3.5 6.1 0.00 0.02 0.02 56 1009.2
20260507150518 53 286 5.2 7.0 0.00 0.02 0.02 56 1009.1
20260507150015 53 214 2.6 3.5 0.00 0.02 0.02 63 1009.2
20260507145510 53 242 0.9 2.6 0.00 0.02 0.02 64 1009.4
20260507145008 52 218 1.7 3.5 0.00 0.02 0.02 58 1009.7
20260507144504 53 296 3.5 5.2 0.00 0.02 0.02 63 1009.4
20260507144001 54 190 0.9 2.6 0.00 0.02 0.02 60 1009.6
20260507143459 53 29 0.0 5.2 0.00 0.02 0.02 63 1009.5
20260507142955 52 230 2.6 3.5 0.00 0.02 0.02 62 1009.7
20260507142451 52 296 0.9 7.0 0.00 0.02 0.02 64 1009.7
20260507141948 52 115 4.3 6.1 0.00 0.02 0.02 63 1009.7
20260507141444 52 284 0.9 1.7 0.00 0.02 0.02 61 1010.1
20260507140941 52 270 0.9 2.6 0.00 0.02 0.02 59 1010.1
20260507140438 51 58 0.9 3.5 0.00 0.02 0.02 59 1010.1
20260507135936 51 294 4.3 6.1 0.00 0.02 0.02 61 1010.1
20260507135432 51 286 1.7 6.1 0.00 0.02 0.02 62 1010.2
20260507134930 53 298 3.5 5.2 0.00 0.02 0.02 70 1010.5
20260507134426 51 114 0.9 0.9 0.00 0.02 0.02 70 1010.4
20260507133922 51 258 2.6 5.2 0.00 0.02 0.02 74 1010.2
20260507133418 50 329 0.0 1.7 0.00 0.02 0.02 71 1010.4
20260507132917 50 344 0.9 1.7 0.00 0.02 0.02 75 1010.5
20260507132413 51 344 0.9 0.9 0.00 0.02 0.02 73 1010.3
20260507131909 50 344 1.7 1.7 0.00 0.02 0.02 74 1010.2
20260507131406 50 286 1.7 2.6 0.00 0.02 0.02 79 1010.7
20260507130903 49 271 0.0 0.9 0.00 0.02 0.02 78 1010.5
20260507130400 49 271 0.0 2.6 0.00 0.02 0.02 77 1010.5
20260507125859 49 243 0.0 0.9 0.00 0.02 0.02 79 1010.6
20260507125356 48 203 0.0 0.9 0.00 0.02 0.02 81 1010.6
20260507124854 48 241 0.9 1.7 0.00 0.02 0.02 82 1010.5
20260507124349 48 182 0.0 1.7 0.00 0.02 0.02 81 1010.5
20260507123848 48 167 0.0 2.6 0.00 0.02 0.02 86 1010.7
20260507123345 47 180 0.9 1.7 0.00 0.02 0.02 87 1010.8
20260507122841 46 186 0.9 1.7 0.00 0.02 0.02 86 1010.6
20260507122337 46 181 0.9 0.9 0.00 0.02 0.02 85 1010.7
20260507121833 46 163 0.9 0.9 0.00 0.02 0.02 84 1010.7
20260507121329 46 180 0.9 0.9 0.00 0.02 0.02 84 1010.6
20260507120826 46 145 0.0 0.9 0.00 0.02 0.02 87 1010.5
20260507120322 47 181 0.9 1.7 0.00 0.02 0.02 90 1010.4
20260507115818 47 29 0.0 0.0 0.00 0.02 0.02 88 1010.6
20260507115314 46 29 0.0 0.0 0.00 0.02 0.02 99 1010.3
20260507114810 44 29 0.0 0.9 0.00 0.02 0.02 99 1010.3
20260507114308 43 29 0.0 0.0 0.00 0.02 0.02 99 1010.3
20260507113805 43 29 0.0 0.0 0.00 0.02 0.02 99 1010.1
20260507113302 43 29 0.0 0.0 0.00 0.02 0.02 99 1009.9
20260507112759 43 29 0.0 0.0 0.00 0.02 0.02 99 1009.9
20260507112256 43 29 0.0 0.0 0.00 0.02 0.02 99 1010.2
20260507111754 43 29 0.0 0.0 0.00 0.02 0.02 99 1010.2
20260507111250 43 29 0.0 0.0 0.00 0.02 0.02 99 1010.1
20260507110746 43 29 0.0 0.0 0.00 0.02 0.02 99 1009.9
20260507110243 43 29 0.0 0.0 0.00 0.02 0.02 99 1009.8
20260507105740 43 29 0.0 0.0 0.00 0.02 0.02 99 1009.6
20260507105236 43 29 0.0 0.0 0.00 0.02 0.02 99 1009.7
20260507104733 43 29 0.0 0.0 0.00 0.02 0.02 99 1009.6
20260507104230 43 29 0.0 0.0 0.00 0.02 0.02 99 1009.5
20260507103725 43 29 0.0 0.0 0.00 0.02 0.02 99 1009.8
20260507103217 43 29 0.0 0.0 0.00 0.02 0.02 98 1009.4
20260507102713 43 29 0.0 0.0 0.00 0.02 0.02 98 1009.6
20260507102209 43 29 0.0 0.0 0.00 0.02 0.02 98 1009.5
20260507101705 43 29 0.0 0.0 0.00 0.02 0.02 98 1009.5
20260507101201 43 29 0.0 0.9 0.00 0.02 0.02 98 1009.7
20260507100658 44 29 0.0 0.0 0.00 0.02 0.02 98 1009.5
20260507100157 44 29 0.0 0.9 0.00 0.02 0.02 98 1009.4
20260507095654 44 29 0.9 1.7 0.00 0.02 0.02 99 1009.3
20260507095151 44 29 0.0 0.9 0.00 0.02 0.02 99 1009.2
20260507094647 44 29 0.0 0.0 0.00 0.02 0.02 99 1009.3
20260507094144 44 29 0.0 0.9 0.00 0.02 0.02 99 1009.1
20260507093641 44 29 0.0 0.9 0.00 0.02 0.02 99 1009.3
20260507093141 44 29 0.9 1.7 0.00 0.02 0.02 99 1009.4
20260507092636 45 29 0.0 0.9 0.00 0.02 0.02 99 1009.4
20260507092133 45 126 0.0 0.0 0.00 0.02 0.02 99 1009.2
20260507091630 45 202 0.0 0.0 0.00 0.02 0.02 99 1009.2
20260507091126 45 176 0.0 0.0 0.00 0.02 0.02 99 1009.3
20260507090622 45 176 0.0 0.0 0.00 0.02 0.02 99 1009.0
20260507090120 44 175 0.0 0.0 0.00 0.02 0.02 99 1009.0
20260507085616 44 175 0.0 0.0 0.00 0.02 0.02 99 1009.3
20260507085112 45 175 0.0 0.0 0.00 0.02 0.02 99 1009.1
20260507084609 45 175 0.0 0.0 0.00 0.02 0.02 99 1009.3
20260507084106 45 157 0.0 0.0 0.00 0.02 0.02 99 1009.0
20260507083602 45 157 0.0 0.9 0.00 0.02 0.02 99 1009.1
20260507083059 45 160 0.0 0.0 0.00 0.02 0.02 99 1009.1
20260507082555 45 160 0.0 0.9 0.00 0.02 0.02 99 1009.2
20260507082052 45 168 0.9 0.9 0.00 0.02 0.02 99 1009.3
20260507081548 45 168 0.9 0.9 0.00 0.02 0.02 99 1009.2
20260507081046 45 192 0.0 0.9 0.00 0.02 0.02 99 1009.3
20260507080542 45 172 0.0 0.9 0.00 0.02 0.02 99 1009.1
20260507080039 45 176 0.0 0.0 0.00 0.02 0.02 99 1009.3
20260507075533 45 188 0.0 0.9 0.00 0.02 0.02 99 1009.2
20260507075030 45 149 0.0 0.0 0.00 0.02 0.02 99 1009.3
20260507074526 46 152 0.0 0.0 0.00 0.02 0.02 99 1009.2
20260507074025 45 232 0.0 0.0 0.00 0.02 0.02 99 1009.3
20260507073521 45 301 0.0 0.0 0.00 0.02 0.02 99 1009.4
20260507073017 45 301 0.0 0.0 0.00 0.02 0.02 99 1009.3
20260507072515 45 301 0.0 0.0 0.00 0.02 0.02 99 1009.3
20260507072012 45 301 0.0 0.0 0.00 0.02 0.02 99 1009.1
20260507071509 45 301 0.0 0.0 0.00 0.02 0.02 99 1009.2
20260507071006 45 301 0.0 0.0 0.00 0.02 0.02 99 1009.3
20260507070503 45 310 0.0 0.9 0.00 0.02 0.02 99 1009.0
20260507070000 45 311 0.0 0.9 0.00 0.02 0.02 99 1009.1
20260507065456 45 330 0.9 0.9 0.00 0.02 0.02 99 1009.0
20260507064953 45 306 0.9 1.7 0.00 0.02 0.02 99 1009.3
20260507064452 45 352 0.9 1.7 0.07 0.02 0.02 99 1009.0
20260507063949 46 328 2.6 5.2 0.12 0.02 0.02 99 1009.1
20260507063446 47 2 1.7 1.7 0.05 0.01 0.01 99 1009.0
20260507062943 47 247 0.0 0.0 0.00 0.00 0.00 99 1009.1
20260507062440 47 247 0.0 0.0 0.00 0.00 0.00 99 1009.1
20260507061937 47 247 0.0 0.0 0.00 0.00 0.00 99 1009.1
20260507061435 47 247 0.0 0.9 0.00 0.00 0.00 99 1009.2
20260507060934 47 247 0.0 0.9 0.00 0.00 0.00 99 1009.1
20260507060430 47 247 0.0 0.9 0.00 0.00 0.00 99 1009.2
20260507055928 47 247 0.9 0.9 0.00 0.00 0.00 99 1009.2
20260507055423 47 247 0.9 0.9 0.00 0.00 0.00 99 1009.2
20260507054920 47 247 0.0 0.9 0.00 0.00 0.00 99 1009.3
20260507054416 47 247 0.0 0.0 0.00 0.00 0.00 99 1009.3
20260507053913 47 247 0.0 0.0 0.00 0.00 0.00 99 1009.5
20260507053411 47 247 0.0 0.0 0.00 0.00 0.00 99 1009.6
20260507052910 47 247 0.0 0.0 0.00 0.00 0.00 99 1009.7
20260507052406 47 247 0.0 0.0 0.00 0.00 0.00 99 1009.5
20260507051857 47 247 0.9 1.7 0.00 0.00 0.00 99 1009.8
20260507051355 47 247 0.9 0.9 0.00 0.00 0.00 99 1009.8
20260507050851 47 247 0.0 0.9 0.00 0.00 0.00 99 1009.9
20260507050348 47 247 0.9 0.9 0.00 0.00 0.00 99 1009.9
20260507045845 47 247 0.9 0.9 0.00 0.00 0.00 99 1009.8
20260507045341 47 247 0.0 0.0 0.00 0.00 0.00 99 1009.7
20260507044839 47 247 0.0 0.0 0.00 0.00 0.00 99 1009.7
20260507044335 47 247 0.0 0.0 0.00 0.00 0.00 99 1009.9
20260507043831 47 247 0.0 0.0 0.00 0.00 0.00 99 1009.6
20260507043328 47 247 0.0 0.0 0.00 0.00 0.00 99 1009.6
20260507042824 47 247 0.0 0.0 0.00 0.00 0.00 99 1009.7
20260507042320 47 247 0.0 0.0 0.00 0.00 0.00 99 1009.5
20260507041817 47 247 0.0 0.0 0.00 0.00 0.00 99 1009.6
20260507041313 47 247 0.9 1.7 0.00 0.00 0.00 99 1009.7
20260507040811 47 247 0.9 0.9 0.00 0.00 0.00 99 1009.7
20260507040307 47 247 0.0 0.0 0.00 0.00 0.00 99 1009.5
20260507035803 47 247 0.0 0.0 0.00 0.59 0.59 99 1009.7
20260507035258 47 247 0.0 0.0 0.00 0.59 0.59 99 1009.7
20260507034757 47 247 0.0 0.9 0.00 0.59 0.59 99 1009.6
20260507034253 47 134 0.0 0.0 0.07 0.59 0.59 99 1009.7
20260507033751 47 134 0.0 0.9 0.07 0.59 0.59 99 1009.6
20260507033248 47 301 0.9 0.9 0.00 0.58 0.58 99 1009.4
20260507032745 47 301 0.0 0.0 0.00 0.58 0.58 99 1009.8
20260507032241 47 301 0.9 0.9 0.00 0.58 0.58 99 1009.8
20260507031738 47 301 0.0 0.0 0.00 0.58 0.58 99 1010.2
20260507031235 47 301 0.0 0.0 0.00 0.58 0.58 99 1010.4
20260507030732 47 301 0.0 1.7 0.00 0.58 0.58 99 1010.3
20260507030229 47 164 0.0 0.9 0.00 0.58 0.58 99 1010.2
20260507025727 47 229 0.9 0.9 0.00 0.58 0.58 99 1009.7
20260507025223 47 227 0.0 0.0 0.00 0.58 0.58 99 1009.6
20260507024722 47 227 0.0 0.0 0.00 0.58 0.58 99 1009.6
20260507024218 47 227 0.0 0.9 0.00 0.58 0.58 99 1009.4
20260507023714 47 236 0.0 0.9 0.07 0.58 0.58 99 1009.5
20260507023211 48 172 1.7 1.7 0.07 0.58 0.58 99 1009.6
20260507022709 47 198 0.9 0.9 0.00 0.57 0.57 99 1009.7
20260507022204 48 163 0.9 1.7 0.00 0.57 0.57 99 1009.9
20260507021701 48 334 0.0 0.9 0.00 0.57 0.57 99 1009.8
20260507021156 47 335 0.0 0.0 0.00 0.57 0.57 99 1009.6
20260507020655 47 334 0.9 0.9 0.00 0.57 0.57 99 1009.4
20260507020150 47 335 0.0 0.9 0.00 0.57 0.57 99 1009.5
20260507015648 47 329 0.0 0.0 0.00 0.57 0.57 99 1009.3
20260507015145 47 329 0.0 0.0 0.00 0.57 0.57 99 1009.2
20260507014642 47 329 0.0 0.0 0.00 0.57 0.57 99 1009.1
20260507014138 47 120 0.0 0.0 0.00 0.57 0.57 99 1009.2
20260507013635 47 13 0.0 0.9 0.00 0.57 0.57 99 1009.2
20260507013132 47 49 0.9 0.9 0.00 0.57 0.57 99 1009.2
20260507012630 48 49 1.7 1.7 0.00 0.57 0.57 99 1009.0
20260507012124 48 318 1.7 2.6 0.00 0.57 0.57 99 1009.6
20260507011623 48 306 0.0 0.0 0.00 0.57 0.57 99 1009.3
20260507011119 48 322 0.0 0.0 0.00 0.57 0.57 99 1009.1
20260507010614 48 10 0.0 0.9 0.00 0.57 0.57 99 1009.0
20260507010110 48 338 1.7 1.7 0.00 0.57 0.57 99 1008.9
20260507005607 48 324 0.0 1.7 0.00 0.57 0.57 99 1008.8
20260507005103 49 307 3.5 7.8 0.00 0.57 0.57 99 1008.6
20260507004600 49 276 1.7 2.6 0.00 0.57 0.57 99 1008.8
20260507004058 49 29 1.7 3.5 0.00 0.57 0.57 99 1009.0
20260507003554 49 301 0.0 1.7 0.00 0.57 0.57 99 1008.7
20260507003049 49 342 1.7 1.7 0.00 0.57 0.57 99 1008.8
20260507002546 49 300 1.7 2.6 0.00 0.57 0.57 99 1008.6
20260507002042 49 334 0.0 0.9 0.00 0.57 0.57 99 1008.3
20260507001539 49 334 0.0 0.9 0.00 0.57 0.57 99 1008.6
20260507001036 50 334 0.0 1.7 0.00 0.57 0.57 99 1008.9
20260507000532 50 305 0.9 2.6 0.00 0.57 0.57 98 1009.2
20260507000027 50 300 0.9 1.7 0.00 0.57 0.57 98 1009.3
20260506235525 50 308 0.9 1.7 0.00 0.57 0.57 98 1009.1
20260506235015 50 303 0.9 2.6 0.00 0.57 0.57 98 1009.0
20260506234513 50 309 0.9 1.7 0.00 0.57 0.57 97 1009.0
20260506234010 50 305 1.7 1.7 0.00 0.57 0.57 97 1009.0
20260506233507 50 307 1.7 3.5 0.00 0.57 0.57 98 1009.0
20260506233004 50 308 2.6 2.6 0.00 0.57 0.57 98 1009.0
20260506232500 50 305 0.9 2.6 0.00 0.57 0.57 98 1008.9
20260506231955 50 314 0.9 1.7 0.00 0.57 0.57 98 1009.0